Location: Home
(42.5358°N, 72.7383°W)
Time: 09:07:24
(UTC-05:00)

Altair - All Passes

Search period start: 09 December 2021 00:00
Search period end: 19 December 2021 00:00
Orbit: 1502 x 1682 km, 47.2° (Epoch: 08 December)

Date Brightness Start Highest point End Pass type
(mag) Time Alt. Az. Time Alt. Az. Time Alt. Az.
09 Dec - 12:07:42 10° S 12:15:54 31° SE 12:23:51 10° ENE daylight
09 Dec - 14:10:04 10° WSW 14:19:47 81° SSE 14:29:09 10° ENE daylight
09 Dec - 16:15:25 10° W 16:24:55 67° N 16:34:08 10° ENE daylight
09 Dec - 18:20:56 10° WNW 18:30:20 80° NNE 18:39:32 10° ESE visible
09 Dec - 20:25:58 10° WNW 20:34:40 48° SW 20:43:19 10° SSE visible
09 Dec - 22:34:38 10° WSW 22:37:32 12° WSW 22:40:27 10° SW visible
10 Dec - 11:42:53 10° S 11:50:50 29° SE 11:58:32 10° ENE daylight
10 Dec - 13:44:53 10° SW 13:54:36 77° SSE 14:03:58 10° ENE daylight
10 Dec - 15:50:08 10° W 15:59:41 68° N 16:08:55 10° ENE daylight
10 Dec - 17:55:42 10° WNW 18:05:08 78° NNE 18:14:20 10° ESE visible
10 Dec - 20:00:44 10° WNW 20:09:34 52° SW 20:18:20 10° SSE visible
10 Dec - 22:08:30 10° W 22:12:32 14° WSW 22:16:35 10° SSW visible
11 Dec - 11:18:07 10° S 11:25:45 26° SE 11:33:11 10° ENE daylight
11 Dec - 13:19:42 10° SW 13:29:26 73° SSE 13:38:48 10° ENE daylight
11 Dec - 15:24:51 10° W 15:34:27 69° N 15:43:44 10° ENE daylight
11 Dec - 17:30:28 10° WNW 17:39:56 75° NNE 17:49:08 10° ESE visible
11 Dec - 19:35:30 10° WNW 19:44:28 56° SW 19:53:19 10° SE visible
11 Dec - 21:42:40 10° W 21:47:31 16° SW 21:52:24 10° SSW visible
12 Dec - 10:53:24 10° S 11:00:41 24° SE 11:07:47 10° E daylight
12 Dec - 12:54:33 10° SW 13:04:16 69° SSE 13:13:38 10° ENE daylight
12 Dec - 14:59:34 10° W 15:09:12 70° N 15:18:31 10° ENE daylight
12 Dec - 17:05:14 10° WNW 17:14:43 73° NNE 17:23:55 10° E visible
12 Dec - 19:10:17 10° WNW 19:19:21 60° SW 19:28:17 10° SE visible
12 Dec - 21:16:59 10° W 21:22:31 18° SW 21:28:02 10° SSW visible
13 Dec - 10:28:44 10° S 10:35:37 22° SE 10:42:21 10° E daylight
13 Dec - 12:29:25 10° SW 12:39:07 65° SE 12:48:27 10° ENE daylight
13 Dec - 14:34:16 10° W 14:43:58 72° NNW 14:53:19 10° ENE daylight
13 Dec - 16:39:59 10° WNW 16:49:29 72° NNE 16:58:43 10° E visible
13 Dec - 18:45:04 10° WNW 18:54:14 64° SW 19:03:14 10° SE visible
13 Dec - 20:51:26 10° W 20:57:29 20° SW 21:03:33 10° S visible
14 Dec - 10:04:09 10° SSE 10:10:34 20° SE 10:16:51 10° E daylight
14 Dec - 12:04:18 10° SW 12:13:57 61° SE 12:23:16 10° ENE daylight
14 Dec - 14:08:59 10° W 14:18:45 74° NNW 14:28:08 10° ENE daylight
14 Dec - 16:14:44 10° WNW 16:24:16 70° N 16:33:30 10° E daylight
14 Dec - 18:19:51 10° WNW 18:29:07 68° SSW 18:38:10 10° SE visible
14 Dec - 20:25:56 10° W 20:32:29 22° SW 20:39:00 10° S visible
15 Dec - 09:39:39 10° SSE 09:45:31 17° SE 09:51:16 10° E daylight
15 Dec - 11:39:12 10° SW 11:48:48 58° SE 11:58:05 10° ENE daylight
15 Dec - 13:43:43 10° WSW 13:53:30 76° NNW 14:02:56 10° ENE daylight
15 Dec - 15:49:28 10° WNW 15:59:02 69° N 16:08:16 10° E daylight
15 Dec - 17:54:38 10° WNW 18:03:59 72° SSW 18:13:05 10° SE visible
15 Dec - 20:00:29 10° W 20:07:27 25° SW 20:14:21 10° S visible
16 Dec - 09:15:17 10° SSE 09:20:28 16° SE 09:25:34 10° E daylight
16 Dec - 11:14:07 10° SW 11:23:40 54° SE 11:32:52 10° ENE daylight
16 Dec - 13:18:26 10° WSW 13:28:16 78° NNW 13:37:45 10° ENE daylight
16 Dec - 15:24:11 10° WNW 15:33:47 68° N 15:43:03 10° E daylight
16 Dec - 17:29:25 10° WNW 17:38:50 76° SSW 17:47:59 10° SE visible
16 Dec - 19:35:05 10° WNW 19:42:24 27° SW 19:49:39 10° S visible
17 Dec - 08:51:06 10° SSE 08:55:26 14° ESE 08:59:41 10° E daylight
17 Dec - 10:49:04 10° SSW 10:58:31 50° SE 11:07:40 10° ENE daylight
17 Dec - 12:53:09 10° WSW 13:03:03 80° NNW 13:12:33 10° ENE daylight
17 Dec - 14:58:54 10° WNW 15:08:32 67° N 15:17:49 10° E daylight
17 Dec - 17:04:11 10° WNW 17:13:40 80° SSW 17:22:52 10° SE visible
17 Dec - 19:09:43 10° WNW 19:17:22 30° SW 19:24:54 10° S visible
18 Dec - 08:27:16 10° SE 08:30:24 12° ESE 08:33:30 10° ESE daylight
18 Dec - 10:24:03 10° SSW 10:33:24 47° SE 10:42:27 10° ENE daylight
18 Dec - 12:27:53 10° WSW 12:37:49 83° NNW 12:47:22 10° ENE daylight
18 Dec - 14:33:38 10° W 14:43:18 67° N 14:52:36 10° E daylight
18 Dec - 16:38:58 10° WNW 16:48:31 84° SSW 16:57:44 10° ESE visible
18 Dec - 18:44:23 10° WNW 18:52:19 33° SW 19:00:07 10° SSE visible
